Tracking 32412 objects as of 6-Dec-2025
HD Live streaming from Space Station
objects crossing your sky now

CZ-4 DEB

Track CZ-4 DEB now!
10-day predictions


NORAD ID: 23254
Int'l Code: 1990-081CK
Perigee: 713.7 km
Apogee: 809.4 km
Inclination: 98.5 °
Period: 99.9 minutes
Semi major axis: 7132 km
RCS: 0.0074 m2 (small)
Launch date: September 3, 1990
Source: People's Republic of China (PRC)
Launch site: Taiyaun Space Center, China (TSC)

Note: This is SATELLITE DEBRIS
Your satellite tracking list
Your tracking list is empty




NASA's NSSDC Master Catalog

Two Line Element Set (TLE):
1 23254U 90081CK  25338.61533670  .00002250  00000-0  69166-3 0  9996
2 23254  98.4946  37.0408 0067092  74.5470 286.3116 14.41241272649623
Source of the keplerian elements: AFSPC